Hourly Data Report for September 02, 2017

All times are specified in Local Standard Time (LST). Add 1 hour to adjust for Daylight Saving Time where and when it is observed.

KAMLOOPS A
BRITISH COLUMBIA

50°42'09.000" N
120°26'55.000" W
345.30 m
1163781
71887
YKA

Download Data

Hourly Data (September 2017)
Hourly Data Report for September 2, 2017
Temp Definition
°C
Dew Point Temp Definition
°C
Rel Hum Definition
%
Wind Dir Definition
10's deg

Wind Spd Definition
km/h
Visibility Definition
km
Stn Press Definition
kPa
Hmdx Definition


Wind Chill Definition


Weather Definition


TIME
00:00 Legend Double Dagger 20.6 7.6 43 11 10 64.4 97.44     LegendNANA
01:00 Legend Double Dagger 18.9 6.9 45 8 11 64.4 97.48     Clear
02:00 Legend Double Dagger 18.8 7.5 47 14 8 64.4 97.47     LegendNANA
03:00 Legend Double Dagger 14.5 7.0 60 26 9 64.4 97.50     LegendNANA
04:00 Legend Double Dagger 16.5 7.0 53 10 11 64.4 97.51     Clear
05:00 Legend Double Dagger 15.1 7.0 58 8 7 40.2 97.52     LegendNANA
06:00 Legend Double Dagger 14.7 7.3 61 1 4 40.2 97.56     LegendNANA
07:00 Legend Double Dagger 17.9 7.2 49 6 4 40.2 97.55     Mainly Clear
08:00 Legend Double Dagger 19.7 8.0 46 11 9 64.4 97.51     LegendNANA
09:00 Legend Double Dagger 22.6 7.8 38 7 10 64.4 97.42     LegendNANA
10:00 Legend Double Dagger 25.4 9.2 35 8 6 64.4 97.34 26   Mainly Clear
11:00 Legend Double Dagger 27.2 10.2 34 20 4 64.4 97.24 29   LegendNANA
12:00 Legend Double Dagger 26.7 11.2 37 27 14 64.4 97.16 29   LegendNANA
13:00 Legend Double Dagger 28.2 12.2 36 28 14 64.4 97.12 31   Mostly Cloudy
14:00 Legend Double Dagger 30.4 11.9 31 31 18 64.4 97.05 33   LegendNANA
15:00 Legend Double Dagger 32.5 10.2 25 27 16 64.4 96.99 34   LegendNANA
16:00 Legend Double Dagger 34.2 11.0 24 27 17 64.4 96.92 36   Mainly Clear
17:00 Legend Double Dagger 32.0 10.2 25 27 11 64.4 96.91 33   LegendNANA
18:00 Legend Double Dagger 29.7 11.3 32 27 23 64.4 96.92 32   LegendNANA
19:00 Legend Double Dagger 27.2 10.8 35 28 18 64.4 97.01 29   Mainly Clear
20:00 Legend Double Dagger 26.9 11.1 37 27 17 6.4 97.23 29   Smoke
21:00 Legend Double Dagger 24.9 12.0 44 29 26 4.8 97.35 27   Smoke
22:00 Legend Double Dagger 23.4 12.1 49 28 25 4.8 97.47 26   Smoke
23:00 Legend Double Dagger 21.8 12.4 55 28 18 6.4 97.54     Smoke

Notes on Data Quality.

Legend

  • E = Estimated
  • M = Missing
  • NA = Not Available
  • ‡ = Partner data that is not subject to review by the National Climate Archives
Date modified: